Location: Fosso Corella
(43.9167°N, 11.5667°E)
Time: 02:38:11
(UTC+00:00)

SL-4 R/B - Pass Details

Date: 07 June 2020
Orbit: 428 x 666 km, 51.6° (Epoch: 05 July)

Event Time Altitude Azimuth Distance (km) Brightness Sun altitude
Rises 01:08:42 0° 301° (WNW) 3,007 5.8 -18.2°
Reaches altitude 10° 01:11:05 10° 301° (WNW) 2,087 5.0 -18.0°
Maximum altitude 01:15:56 90° 223° (SW) 656 2.3 -17.6°
Drops below altitude 10° 01:20:35 10° 123° (ESE) 2,003 4.8 -17.1°
Sets 01:22:50 0° 123° (ESE) 2,875 5.7 -16.9°
